Weather History for Springfield, IL

Change the Weather History Date:

Friday, November 5, 2010

  Actual Average Record
Temperature  
Mean Temperature 36 °F 48 °F  
Max Temperature 46 °F 58 °F 78 °F (1978)
Min Temperature 26 °F 38 °F 21 °F (1991)
Degree Days  
Heating Degree Days 29 17  
Month to date heating degree days 107 81  
Since 1 July heating degree days 395 491  
Cooling Degree Days 0 0  
Month to date cooling degree days 0 0  
Year to date cooling degree days 1554 1121  
Moisture  
Dew Point 23 °F    
Average Humidity 56    
Maximum Humidity 79    
Minimum Humidity 33    
Precipitation  
Precipitation 0.00 in 0.11 in 1.30 in (1941)
Month to date precipitation 0.06 0.52  
Year to date precipitation 43.52 32.22  
Snow  
Snow 0.00 in 0.00 in 3.70 in (1896)
Month to date snowfall 0.0 0.0  
Since 1 July snowfall 0.0 T  
Since 1 September snowfall 0.0 T  
Snow Depth 0.00 in    
Sea Level Pressure  
Sea Level Pressure 30.10 in    
Wind  
Wind Speed 10 mph (NNW)    
Max Wind Speed 20 mph    
Max Gust Speed 25 mph    
Visibility 10 miles    
Events      
T = Trace of Precipitation, MM = Missing Value Source: NWS Daily Summary

Daily Weather History Graph

Daily Weather History Graph

Search for Another Location

Airport:

Trip Planner

Search our weather history database for the weather conditions in past years. The results will help you decide how hot, cold, wet, or windy it might be!

Date:

Astronomy

Nov. 05, 2010 Rise Set
Actual Time 7:32 AM CDT 5:52 PM CDT
Civil Twilight 7:03 AM CDT 6:20 PM CDT
Nautical Twilight 6:31 AM CDT 6:52 PM CDT
Astronomical Twilight 6:00 AM CDT 7:24 PM CDT
Moon 6:57 AM CDT (11/5) 5:15 PM CDT (11/5)
Length of Visible Light 11h 16m
Length of Day
10h 20m
Waning Crescent, 0% of the Moon is Illuminated
Nov 5
Waning Crescent
Nov 5
New
Nov 13
First Quarter
Nov 21
Full
Nov 28
Last Quarter

Hourly Weather History & Observations

Time (CDT) Temp. Windchill Dew Point Humidity Pressure Visibility Wind Dir Wind Speed Gust Speed Precip Events Conditions
12:52 AM 41.0 °F 34.7 °F 35.1 °F 79% 29.98 in 10.0 mi North 10.4 mph - 0.01 in   Overcast
1:52 AM 39.9 °F 32.9 °F 32.0 °F 73% 29.99 in 10.0 mi North 11.5 mph - N/A   Overcast
2:52 AM 37.9 °F 29.6 °F 28.9 °F 70% 30.00 in 10.0 mi NNW 13.8 mph - N/A   Partly Cloudy
3:52 AM 36.0 °F 27.5 °F 28.0 °F 73% 30.02 in 10.0 mi NNW 12.7 mph - N/A   Clear
4:52 AM 35.1 °F 27.4 °F 27.0 °F 72% 30.03 in 10.0 mi NNW 10.4 mph - N/A   Clear
5:52 AM 34.0 °F 26.6 °F 27.0 °F 75% 30.05 in 10.0 mi NW 9.2 mph - N/A   Clear
6:52 AM 33.1 °F 24.9 °F 26.1 °F 75% 30.06 in 10.0 mi NW 10.4 mph - N/A   Clear
7:52 AM 32.0 °F 24.2 °F 25.0 °F 75% 30.09 in 10.0 mi NW 9.2 mph - N/A   Clear
8:52 AM 34.0 °F 26.0 °F 25.0 °F 70% 30.11 in 10.0 mi NNW 10.4 mph - N/A   Clear
9:52 AM 36.0 °F 26.7 °F 25.0 °F 64% 30.12 in 10.0 mi North 15.0 mph - N/A   Clear
10:52 AM 39.0 °F 30.3 °F 23.0 °F 53% 30.13 in 10.0 mi North 16.1 mph 23.0 mph N/A   Clear
11:52 AM 42.1 °F 35.2 °F 21.9 °F 45% 30.13 in 10.0 mi North 12.7 mph 23.0 mph N/A   Partly Cloudy
12:52 PM 42.1 °F 35.7 °F 21.9 °F 45% 30.11 in 10.0 mi NNW 11.5 mph 19.6 mph N/A   Partly Cloudy
1:52 PM 44.1 °F 37.4 °F 21.0 °F 40% 30.08 in 10.0 mi NW 13.8 mph 19.6 mph N/A   Clear
2:52 PM 45.0 °F 40.1 °F 21.9 °F 40% 30.08 in 10.0 mi NW 9.2 mph 21.9 mph N/A   Clear
3:52 PM 45.0 °F 37.6 °F 19.9 °F 37% 30.08 in 10.0 mi WNW 17.3 mph 21.9 mph N/A   Clear
4:52 PM 45.0 °F 38.2 °F 18.0 °F 34% 30.10 in 10.0 mi NNW 15.0 mph 21.9 mph N/A   Clear
5:52 PM 41.0 °F 35.2 °F 18.0 °F 40% 30.11 in 10.0 mi NW 9.2 mph - N/A   Clear
6:52 PM 37.9 °F 32.1 °F 18.0 °F 45% 30.13 in 10.0 mi WNW 8.1 mph - N/A   Clear
7:52 PM 36.0 °F 31.1 °F 18.0 °F 48% 30.15 in 10.0 mi WNW 5.8 mph - N/A   Clear
8:52 PM 34.0 °F 31.0 °F 18.0 °F 52% 30.17 in 10.0 mi NW 3.5 mph - N/A   Clear
9:52 PM 34.0 °F 31.0 °F 18.0 °F 52% 30.19 in 10.0 mi NNW 3.5 mph - N/A   Clear
10:52 PM 28.9 °F - 19.0 °F 67% 30.21 in 10.0 mi Calm Calm - N/A   Clear
11:52 PM 28.9 °F - 19.9 °F 69% 30.22 in 10.0 mi Calm Calm - N/A   Clear